Find Starlink 30338

NORAD ID: 57718 Int'l Des: 2023-129 Owner: SPXS Country: US Constellation: starlink operational
LEOCIRCULAR

Current View

Loading 3D Globe...

About Starlink 30338

Starlink 30338 (NORAD 57718) is a starlink constellation satellite (v2 mini) launched Aug 27, 2023 by SPXS of US. It operates in LEO, CIRCULAR orbit with a mass of 730.00 kg.

About Starlink 30338

Description loading...

Upcoming Passes

Passes for default location (London). Set your location on the main map for personalized predictions.

Altitude History

Loading altitude history...

Two-Line Element Set

1 57718U 23129W 26171.24392996 .00001736 00000-0 72587-4 0 9996
2 57718 43.0064 259.0106 0002265 279.1900 80.8696 15.27585820156364
Epoch: Jun 20, 2026 • Age: 46 hours

Current Status

Altitude 483.0 km
Velocity 7.63 km/s
Sub-Earth Point 22.84°N, 48.09°W
Launch Date Aug 27, 2023
Age 2.8 years
Type internet

Technical Details

Classification Payload
Mass 730.00 kg
Dry Mass 700.00 kg
Total Mass 730.00 kg
Length 0.30 m
Diameter 4.10 m
Span 29.00 m
Shape Box + pan
Manufacturer SPXS
Bus Type Starlink V2M
Phase Status In Orbit
Owner/State SPXS/US

Most Searched